(188054) = 2001 VN91

Discovered at Socorro on 2001-11-15 by LINEAR.

Orbit

Orbit type: Main Belt

Note: WebGL enabled browser required.

epoch2023-09-13.0
epoch JD2460200.5
perihelion date2020-02-27.66067
perihelion JD2458907.16067
argument of perihelion (°)343.92378
ascending node (°)114.44526
inclination (°)10.57869
eccentricity0.1720076
perihelion distance (AU)2.2490776
Tisserand w.r.t. Jupiter3.3
ΔV w.r.t. Earth (km/sec)10.0
semimajor axis (AU)2.7163023
mean anomaly (°)284.74046
mean daily motion (°/day)0.22015910
aphelion distance (AU)3.184
period (years)4.48
P-vector [x]-0.14983308
P-vector [y]0.92614707
P-vector [z]0.34612375
Q-vector [x]-0.97448349
Q-vector [y]-0.19750784
Q-vector [z]0.10664233
absolute magnitude16.29
phase slope0.15
uncertainty0
referenceMPEC 2024-B149
observations used477
oppositions13
arc length (days)8135
first opposition used2001
last opposition used2024
residual rms (arc-secs)0.76
perturbers coarse indicatorM-v
perturbers precise indicator003Ek
first observation date used2001-10-20.0
last observation date used2024-01-28.0
computer nameMPCLINUX
JD of orbit computation2456966.835424
perihelion JD uncertainty (days)1.0268E-04
argument of perihelion uncertainty (°)3.9375E-05
ascending node uncertainty (°)3.3168E-05
inclination uncertainty (°)4.2188E-06
eccentricity uncertainty 4.4622E-08
perihelion distance uncertainty (AU)1.3239E-07
Minimum Orbit Intersection Distances (in AU)
for orbit epoch: 2460200.5, reference: E2024-BE9
Mercury1.93998
Venus1.53258
Earth1.26655
Mars0.63856
Jupiter1.98147
Saturn6.79954
Uranus15.8698
Neptune27.0739

Observations

483 total observations over interval: 2001 10 20.51320 – 2024 01 28.251515
These data are available for download (format description).

Date (UT) J2000 RA J2000 Dec Magn Location Ref
2001 10 20.51320 04 11 59.16 +05 20 59.1 20.7   608 – Haleakala-AMOS MPS 46700
2001 10 20.52415 04 11 58.89 +05 20 57.2 21.0   608 – Haleakala-AMOS MPS 46700
2001 10 20.53489 04 11 58.65 +05 20 54.0 21.3   608 – Haleakala-AMOS MPS 46700
2001 11 15.29657 03 54 18.60 +04 13 36.1 19.2   704 – Lincoln Laboratory ETS, New Mexico MPS 42191
2001 11 15.31130 03 54 17.78 +04 13 35.9 19.4   704 – Lincoln Laboratory ETS, New Mexico MPS 42191
2001 11 15.32602 03 54 16.92 +04 13 35.3 19.3   704 – Lincoln Laboratory ETS, New Mexico MPS 42191
2001 11 15.34074 03 54 16.07 +04 13 34.3 19.3   704 – Lincoln Laboratory ETS, New Mexico MPS 42191
2001 11 15.35548 03 54 15.22 +04 13 33.3 18.9   704 – Lincoln Laboratory ETS, New Mexico MPS 42191
2001 11 18.29710 03 51 30.98 +04 11 18.3 19.0   704 – Lincoln Laboratory ETS, New Mexico MPS 42191
2001 11 18.31212 03 51 30.08 +04 11 16.8 19.3   704 – Lincoln Laboratory ETS, New Mexico MPS 42191
2001 11 18.32712 03 51 29.11 +04 11 16.7 19.2   704 – Lincoln Laboratory ETS, New Mexico MPS 42191
2001 11 18.34212 03 51 28.30 +04 11 16.7 18.8   704 – Lincoln Laboratory ETS, New Mexico MPS 42191
2001 12 09.15393 03 32 50.63 +04 42 53.3 19.0 R 699 – Lowell Observatory-LONEOS MPS 46700
2001 12 09.17747 03 32 49.56 +04 42 58.0   699 – Lowell Observatory-LONEOS MPS 46700
2001 12 09.20114 03 32 48.41 +04 43 04.1   699 – Lowell Observatory-LONEOS MPS 46700
2001 12 09.22470 03 32 47.23 +04 43 08.7   699 – Lowell Observatory-LONEOS MPS 46700
2001 12 18.14073 03 26 56.26 +05 22 51.7 19.2   704 – Lincoln Laboratory ETS, New Mexico MPS 44852
2001 12 18.15590 03 26 55.76 +05 22 56.0 19.5   704 – Lincoln Laboratory ETS, New Mexico MPS 44852
2001 12 18.17243 03 26 55.17 +05 23 01.4 19.5   704 – Lincoln Laboratory ETS, New Mexico MPS 44852
2001 12 18.18762 03 26 54.66 +05 23 06.5 19.4   704 – Lincoln Laboratory ETS, New Mexico MPS 44852
2001 12 18.20282 03 26 54.13 +05 23 11.0 19.3   704 – Lincoln Laboratory ETS, New Mexico MPS 44852
2001 12 19.24600 03 26 21.15 +05 28 46.3 20.5   704 – Lincoln Laboratory ETS, New Mexico MPS 44852
2001 12 19.26111 03 26 20.71 +05 28 51.9 20.4   704 – Lincoln Laboratory ETS, New Mexico MPS 44852
2001 12 19.27718 03 26 20.15 +05 28 56.7 19.9   704 – Lincoln Laboratory ETS, New Mexico MPS 44852
2003 03 26.45672 13 51 12.96 +05 57 02.6 20.6   644 – Palomar Mountain/NEAT MPS 178288
2003 03 26.47096 13 51 12.37 +05 57 09.4 20.0   644 – Palomar Mountain/NEAT MPS 178288
2003 03 26.48261 13 51 11.83 +05 57 14.3 20.2   644 – Palomar Mountain/NEAT MPS 178288
2003 04 01.323640 13 46 52.361 +06 36 09.16 20.30 V 645 – Apache Point-Sloan Digital Sky Survey MPS 136933
2003 04 01.327112 13 46 52.196 +06 36 10.46 21.18   645 – Apache Point-Sloan Digital Sky Survey MPS 136933
2003 04 28.199180 13 24 49.825 +08 32 34.85 20.43 V 645 – Apache Point-Sloan Digital Sky Survey MPS 136933
2003 04 28.202652 13 24 49.659 +08 32 35.28 21.30   645 – Apache Point-Sloan Digital Sky Survey MPS 136933
2006 10 27.44046 09 09 00.54 +15 21 22.6 20.6 V G96 – Mt. Lemmon Survey MPS 185298
2006 10 27.45060 09 09 01.40 +15 21 20.5 20.9 V G96 – Mt. Lemmon Survey MPS 185298
2006 10 27.46087 09 09 02.34 +15 21 19.0 21.1 V G96 – Mt. Lemmon Survey MPS 185298
2006 10 27.47120 09 09 03.27 +15 21 16.5 20.7 V G96 – Mt. Lemmon Survey MPS 185298
2006 11 15.43094 09 34 47.10 +14 32 03.3 20.6 V G96 – Mt. Lemmon Survey MPS 186829
2006 11 15.43766 09 34 47.64 +14 32 02.3 21.0 V G96 – Mt. Lemmon Survey MPS 186829
2006 11 15.44455 09 34 48.07 +14 32 01.8 21.0 V G96 – Mt. Lemmon Survey MPS 186829
2006 11 15.45141 09 34 48.54 +14 32 00.5 20.6 V G96 – Mt. Lemmon Survey MPS 186829
2006 11 16.43499 09 35 59.31 +14 30 20.3 20.4 V G96 – Mt. Lemmon Survey MPS 186829
2006 11 16.44323 09 35 59.92 +14 30 19.5 20.4 V G96 – Mt. Lemmon Survey MPS 186829
2006 11 16.45130 09 36 00.50 +14 30 18.7 20.2 V G96 – Mt. Lemmon Survey MPS 186829
2006 11 16.45941 09 36 01.04 +14 30 17.6 20.4 V G96 – Mt. Lemmon Survey MPS 186829
2007 01 09.44673 10 06 20.50 +17 03 13.1   691 – Steward Observatory, Kitt Peak-Spacewatch MPS 195449
2007 01 09.46420 10 06 20.24 +17 03 21.7   691 – Steward Observatory, Kitt Peak-Spacewatch MPS 195449
2007 01 09.48157 10 06 20.01 +17 03 30.1   691 – Steward Observatory, Kitt Peak-Spacewatch MPS 195449
2007 01 10.36226 10 06 09.03 +17 10 41.3 19.3 V 703 – Catalina Sky Survey MPS 195449
2007 01 10.36826 10 06 08.89 +17 10 45.8 19.9 V 703 – Catalina Sky Survey MPS 195449
2007 01 10.37428 10 06 08.67 +17 10 48.6 19.4 V 703 – Catalina Sky Survey MPS 195449
2007 01 10.38031 10 06 08.71 +17 10 50.7 19.7 V 703 – Catalina Sky Survey MPS 195449
2007 01 16.33922 10 04 15.24 +18 03 03.0 19.4 V 703 – Catalina Sky Survey MPS 196300
2007 01 16.34574 10 04 15.06 +18 03 06.4 19.9 V 703 – Catalina Sky Survey MPS 196300
2007 01 16.35231 10 04 14.88 +18 03 11.4 20.1 V 703 – Catalina Sky Survey MPS 196300
2007 01 16.35897 10 04 14.70 +18 03 14.4 19.6 V 703 – Catalina Sky Survey MPS 196300
2007 01 21.32648 10 01 53.09 +18 50 28.7 19.2   704 – Lincoln Laboratory ETS, New Mexico MPS 196977
2007 01 21.33866 10 01 52.72 +18 50 36.4 19.7   704 – Lincoln Laboratory ETS, New Mexico MPS 196977
2007 01 21.35084 10 01 52.29 +18 50 43.4 19.2   704 – Lincoln Laboratory ETS, New Mexico MPS 196977
2007 01 21.36302 10 01 51.86 +18 50 50.5 19.7   704 – Lincoln Laboratory ETS, New Mexico MPS 196977
2007 01 21.37530 10 01 51.38 +18 50 57.9 19.7   704 – Lincoln Laboratory ETS, New Mexico MPS 196977
2007 01 24.32497 10 00 09.08 +19 20 06.9 19.4   704 – Lincoln Laboratory ETS, New Mexico MPS 196977
2007 01 24.34014 10 00 08.46 +19 20 15.3 19.9   704 – Lincoln Laboratory ETS, New Mexico MPS 196977
2007 01 24.35437 10 00 07.91 +19 20 24.6 19.8   704 – Lincoln Laboratory ETS, New Mexico MPS 196977
2007 01 24.38405 10 00 06.76 +19 20 42.0 19.7   704 – Lincoln Laboratory ETS, New Mexico MPS 196977
2007 01 27.21935 09 58 16.75 +19 49 16.1 20.6 V 703 – Catalina Sky Survey MPS 198015
2007 01 27.22764 09 58 16.53 +19 49 17.5 19.4 V 703 – Catalina Sky Survey MPS 198015
2007 01 27.23593 09 58 16.24 +19 49 22.8 19.7 V 703 – Catalina Sky Survey MPS 198015
2007 01 27.24423 09 58 15.85 +19 49 28.7 19.0 V 703 – Catalina Sky Survey MPS 198015
2007 01 27.33146 09 58 12.19 +19 50 22.8 18.8 R 699 – Lowell Observatory-LONEOS MPS 198015
2007 01 27.34885 09 58 11.53 +19 50 32.9   699 – Lowell Observatory-LONEOS MPS 198015
2007 01 27.36622 09 58 10.60 +19 50 43.4   699 – Lowell Observatory-LONEOS MPS 198015
2007 01 27.38359 09 58 09.98 +19 50 53.9   699 – Lowell Observatory-LONEOS MPS 198015
2007 02 07.30319 09 49 45.51 +21 40 30.2 19.0 V 703 – Catalina Sky Survey MPS 198635
2007 02 07.30891 09 49 45.26 +21 40 33.1 19.1 V 703 – Catalina Sky Survey MPS 198635
2007 02 07.31468 09 49 44.94 +21 40 37.2 18.7 V 703 – Catalina Sky Survey MPS 198635
2007 02 07.32049 09 49 44.65 +21 40 40.7 19.6 V 703 – Catalina Sky Survey MPS 198635
2007 02 14.65069 09 43 29.57 +22 48 49.7 19.0 R D29 – Purple Mountain Observatory, XuYi Station MPS 205502
2007 02 14.68602 09 43 27.69 +22 49 08.1 18.9 R D29 – Purple Mountain Observatory, XuYi Station MPS 205502
2007 02 14.71307 09 43 26.18 +22 49 22.2 18.6 R D29 – Purple Mountain Observatory, XuYi Station MPS 205502
2007 02 16.25294 09 42 07.59 +23 02 39.5 18.9 V 703 – Catalina Sky Survey MPS 199421
2007 02 16.25995 09 42 07.23 +23 02 42.6 18.9 V 703 – Catalina Sky Survey MPS 199421
2007 02 16.26699 09 42 06.87 +23 02 46.6 19.0 V 703 – Catalina Sky Survey MPS 199421
2007 02 16.27402 09 42 06.51 +23 02 49.4 19.1 V 703 – Catalina Sky Survey MPS 199421
2007 02 16.35470 09 42 02.20 +23 03 31.5 19.0 R 644 – Palomar Mountain/NEAT MPS 200290
2007 02 16.37501 09 42 01.09 +23 03 41.8 18.9 R 644 – Palomar Mountain/NEAT MPS 200290
2007 02 16.39535 09 42 00.04 +23 03 51.8 18.9 R 644 – Palomar Mountain/NEAT MPS 200290
2007 02 17.36432 09 41 10.86 +23 11 59.4 19.2 R 644 – Palomar Mountain/NEAT MPS 200290
2007 02 17.38470 09 41 09.78 +23 12 09.6 19.0 R 644 – Palomar Mountain/NEAT MPS 200290
2007 02 17.40504 09 41 08.67 +23 12 18.3 19.4 R 644 – Palomar Mountain/NEAT MPS 200290
2007 02 22.20876 09 37 11.85 +23 49 49.0 19.1 V 703 – Catalina Sky Survey MPS 200290
